Tracking 29892 objects as of 21-Nov-2024
HD Live streaming from Space Station
objects crossing your sky now

ONEWEB-0288

Track ONEWEB-0288 now!
10-day predictions
ONEWEB-0288 is classified as:


NORAD ID: 49078
Int'l Code: 2021-075D
Perigee: 1,219.8 km
Apogee: 1,221.9 km
Inclination: 87.9 °
Period: 109.7 minutes
Semi major axis: 7591 km
RCS: Unknown
Launch date: August 21, 2021
Source: United Kingdom (UK)
Launch site: TYURATAM MISSILE AND SPACE COMPLEX (TTMTR)
Your satellite tracking list
CZ-6A DEB
Track 1 satellite(s)




NASA's NSSDC Master Catalog

Two Line Element Set (TLE):
1 49078U 21075D   24325.86697662 -.00000127  00000-0 -38716-3 0  9999
2 49078  87.8858 104.8320 0001389 101.6976 258.4309 13.12442848159983
Source of the keplerian elements: AFSPC